Flag for Germany Weather past 2 weeks in Meiningen, Thuringia, Germany

Now
31 °F

Low clouds.


Feels Like: 28 °F
Forecast: 36 / 42 °F
Wind: 3 mph from South

Location: Meiningen

Current Time: Mar 1, 2015 at 2:32:38 AM

Latest Report: Mar 1, 2015 at 2:00 AM


Visibility: 5 mi

Pressure: 29.96 "Hg

Humidity: 89%

Dew point: 29 °F

Location of MeiningenLocation

Historic Weather in Meiningen — Graph

°F

Meiningen temperature yesterday

Maximum temperature yesterday: 39 °F (at 3:00 PM)
Minimum temperature yesterday: 31 °F (at 6:00 AM)
Average temperature yesterday: 35 °F

Past Weeks' High & Low Weather Summary

 TemperatureHumidityPressure
High46 °F (Feb 20, 4:00 PM)100% (Feb 17, 9:00 AM)30.78 "Hg (Feb 17, 9:00 AM)
Low20 °F (Feb 15, 5:00 AM)51% (Feb 26, 5:00 PM)29.47 "Hg (Feb 21, 9:00 AM)
Average32 °F87%30.06 "Hg
* Reported Feb 14 1:00 AM — Mar 1 1:00 AM, Meiningen, Weather by CustomWeather, © 2015

Note: Actual official high and low records may vary slightly from our data, if they occured in-between our weather recording intervals... More about our weather records

Advertising

Meiningen weather history for previous 24 hours

 ConditionsComfort  
Time TempWeatherWind HumidityBarometerVisibility
1:00 AM
Sun, Mar 1
32 °FOvercast.3 mph87%29.98 "Hg6 mi
12:00 AM33 °FPassing clouds.5 mph84%29.99 "Hg9 mi
11:00 PM
Sat, Feb 28
32 °FPassing clouds.3 mph79%30.02 "Hg11 mi
9:00 PM33 °FClear.3 mph76%30.06 "Hg14 mi
8:00 PM34 °FClear.3 mph73%30.08 "Hg17 mi
7:00 PM35 °FClear.3 mph68%30.09 "Hg16 mi
6:00 PM36 °FClear.3 mph64%30.09 "Hg19 mi
5:00 PM38 °FPartly sunny.3 mph59%30.09 "Hg25 mi
4:00 PM39 °FOvercast.5 mph59%30.10 "Hg25 mi
3:00 PM39 °FPassing clouds.5 mph57%30.11 "Hg25 mi
2:00 PM39 °FOvercast.2 mph55%30.13 "Hg22 mi
1:00 PM37 °FOvercast.5 mph66%30.16 "Hg17 mi
12:00 PM37 °FPartly sunny.3 mph71%30.17 "Hg17 mi
11:00 AM37 °FPassing clouds.2 mph69%30.18 "Hg19 mi
10:00 AM34 °FPassing clouds.2 mph90%30.19 "Hg5 mi
9:00 AM32 °FFog.2 mph96%30.20 "Hg4 mi
8:00 AM31 °FOvercast.1 mph94%30.20 "Hg5 mi
7:00 AM31 °FOvercast.1 mph93%30.19 "Hg9 mi
6:00 AM31 °FOvercast.1 mph95%30.18 "Hg9 mi
5:00 AM32 °FOvercast.2 mph91%30.17 "Hg13 mi
3:00 AM33 °FOvercast.5 mph92%30.14 "Hg9 mi
2:00 AM33 °FLow clouds.3 mph97%30.15 "Hg5 mi
Weather by CustomWeather, © 2015

See weather overviewHow to use our weather pages